FW1310 Weather Reports


time (UTC)temp
F
wind
direction
speed
knots
gust
knots
rain 1hr
in
rain 24hr
in
rain mn
in
humidity
%
barometer
mb
20260903090503 79 200 4.3 7.8 0.00 0.00 0.00 89 996.7
20260903090003 79 170 5.2 7.8 0.00 0.00 0.00 89 996.9
20260903085503 79 174 4.3 7.0 0.00 0.00 0.00 88 996.9
20260903085003 79 258 2.6 7.0 0.00 0.00 0.00 88 996.8
20260903084504 79 181 4.3 7.0 0.00 0.00 0.00 88 996.9
20260903084004 79 176 4.3 7.0 0.00 0.00 0.00 87 996.8
20260903083503 79 201 4.3 7.0 0.00 0.00 0.00 87 997.0
20260903082003 80 177 2.6 8.7 0.00 0.00 0.00 86 996.8
20260903081503 80 154 3.5 6.1 0.00 0.00 0.00 85 996.8
20260903081004 80 207 4.3 6.1 0.00 0.00 0.00 85 996.9
20260903080003 80 196 2.6 7.0 0.00 0.00 0.00 84 996.8
20260903075003 80 181 3.5 6.1 0.00 0.00 0.00 83 996.9
20260903074503 80 187 2.6 6.1 0.00 0.00 0.00 83 996.9
20260903074004 80 183 2.6 5.2 0.00 0.00 0.00 82 997.1
20260903073503 80 214 4.3 6.1 0.00 0.00 0.00 82 996.9
20260903073003 80 193 3.5 7.8 0.00 0.00 0.00 81 997.0
20260903072003 80 185 5.2 8.7 0.00 0.00 0.00 81 997.0
20260903071004 81 189 4.3 6.1 0.00 0.00 0.00 80 997.2
20260903070503 81 156 4.3 6.1 0.00 0.00 0.00 80 997.1
20260903070004 81 177 3.5 7.8 0.00 0.00 0.00 79 997.1
20260903065503 81 161 4.3 7.8 0.00 0.00 0.00 78 997.1
20260903064004 81 201 4.3 6.1 0.00 0.00 0.00 77 997.3
20260903063503 81 174 5.2 7.8 0.00 0.00 0.00 77 997.4
20260903063003 80 201 3.5 6.1 0.00 0.00 0.00 78 997.1
20260903062003 80 212 1.7 5.2 0.00 0.00 0.00 81 997.5
20260903061003 80 177 4.3 6.1 0.00 0.00 0.00 81 997.4
20260903060504 80 156 3.5 6.1 0.00 0.00 0.00 80 997.5
20260903060003 80 130 3.5 6.1 0.00 0.00 0.00 81 997.4
20260903055503 80 197 2.6 5.2 0.00 0.00 0.00 81 997.4
20260903055003 80 171 2.6 4.3 0.00 0.00 0.00 81 997.5
20260903054503 80 180 1.7 6.1 0.00 0.00 0.00 81 997.4
20260903054003 80 120 2.6 5.2 0.00 0.00 0.00 81 997.3
20260903053504 80 187 2.6 5.2 0.00 0.00 0.00 81 997.2
20260903053004 80 134 1.7 4.3 0.00 0.00 0.00 81 997.4
20260903051003 80 146 4.3 7.0 0.00 0.00 0.00 80 997.3
20260903050504 80 170 2.6 6.1 0.00 0.00 0.00 80 997.1
20260903050003 80 176 2.6 5.2 0.00 0.00 0.00 79 997.3
20260903045504 81 143 1.7 7.0 0.00 0.00 0.00 79 997.2
20260903045004 81 158 1.7 4.3 0.00 0.00 0.00 78 997.3
20260903044504 81 146 1.7 4.3 0.00 0.00 0.00 77 997.3
20260903044003 81 155 1.7 5.2 0.00 0.00 0.00 76 997.3
20260903043503 82 153 2.6 7.0 0.00 0.00 0.00 76 997.3
20260903042503 82 141 2.6 5.2 0.00 0.00 0.00 75 997.2
20260903042003 82 96 2.6 5.2 0.00 0.00 0.00 74 997.2
20260903041504 82 70 1.7 5.2 0.00 0.00 0.00 74 997.2
20260903041003 82 99 2.6 6.1 0.00 0.00 0.00 73 997.2
20260903040503 83 167 3.5 7.0 0.00 0.00 0.00 72 997.3
20260903040003 83 167 4.3 7.8 0.00 0.00 0.00 72 997.4
20260903035503 83 174 2.6 6.1 0.00 0.00 0.00 72 997.2
20260903035003 83 117 4.3 7.0 0.00 0.00 0.00 71 997.3
20260903034504 84 180 2.6 6.1 0.00 0.00 0.00 70 997.5
20260903034003 84 133 2.6 6.1 0.00 0.00 0.00 69 997.4
20260903033503 84 165 3.5 6.1 0.00 0.00 0.00 68 997.3
20260903033003 85 117 2.6 5.2 0.00 0.00 0.00 66 997.0
20260903032503 85 138 2.6 6.1 0.00 0.00 0.00 65 997.1
20260903032003 85 98 2.6 4.3 0.00 0.00 0.00 64 997.1
20260903031503 86 186 2.6 4.3 0.00 0.00 0.00 64 997.0
20260903031003 86 130 1.7 7.0 0.00 0.00 0.00 63 996.9
20260903030504 86 92 2.6 7.0 0.00 0.00 0.00 62 996.7
20260903030003 87 93 1.7 6.1 0.00 0.00 0.00 62 996.7
20260903025503 88 129 0.9 2.6 0.00 0.00 0.00 62 996.8
20260903025003 88 133 0.9 1.7 0.00 0.00 0.00 60 996.5
20260903024503 88 121 0.9 2.6 0.00 0.00 0.00 59 996.3
20260903024003 88 129 0.9 1.7 0.00 0.00 0.00 59 996.1
20260903023004 89 127 0.9 2.6 0.00 0.00 0.00 59 996.0
20260903022504 89 139 1.7 2.6 0.00 0.00 0.00 58 996.2
20260903022003 89 124 0.9 1.7 0.00 0.00 0.00 58 996.0
20260903021503 89 136 0.9 2.6 0.00 0.00 0.00 58 996.0
20260903021003 89 138 0.9 1.7 0.00 0.00 0.00 58 995.9
20260903020503 89 133 0.9 1.7 0.00 0.00 0.00 57 995.7
20260903020003 89 130 0.9 2.6 0.00 0.00 0.00 57 995.7
20260903015003 89 140 0.9 0.9 0.00 0.00 0.00 58 995.6
20260903014004 89 151 0.9 1.7 0.00 0.00 0.00 58 995.5
20260903013503 89 123 0.0 1.7 0.00 0.00 0.00 59 995.3
20260903013003 89 141 0.9 1.7 0.00 0.00 0.00 58 995.3
20260903012504 89 104 0.9 0.9 0.00 0.00 0.00 58 995.3
20260903012003 90 119 0.9 0.9 0.00 0.00 0.00 57 995.5
20260903010503 91 138 0.9 1.7 0.00 0.00 0.00 54 995.5
20260903010004 92 168 0.9 2.6 0.00 0.00 0.00 52 995.5
20260903005504 92 204 1.7 1.7 0.00 0.00 0.00 50 995.4
20260903005004 92 95 0.0 1.7 0.00 0.00 0.00 50 995.5
20260903004503 93 84 0.9 1.7 0.00 0.00 0.00 49 995.5
20260903003503 93 102 0.9 1.7 0.00 0.00 0.00 48 995.3
20260903003003 93 94 0.0 0.9 0.00 0.00 0.00 48 995.2
20260903002504 93 106 0.0 1.7 0.00 0.00 0.00 48 995.2
20260903002003 93 96 0.9 1.7 0.00 0.00 0.00 49 995.3
20260903000503 92 113 0.9 1.7 0.00 0.00 0.00 50 995.3
20260903000003 92 84 0.9 2.6 0.00 0.00 0.00 50 995.3
20260902235503 93 71 1.7 2.6 0.00 0.00 0.00 50 995.3
20260902234504 92 131 0.9 1.7 0.00 0.00 0.00 49 995.2
20260902234003 92 172 0.9 1.7 0.00 0.00 0.00 49 995.3
20260902233504 92 126 0.9 2.6 0.00 0.00 0.00 49 995.3
20260902233003 93 134 1.7 4.3 0.00 0.00 0.00 48 995.2
20260902232503 93 107 1.7 2.6 0.00 0.00 0.00 47 995.3
20260902232003 93 163 1.7 2.6 0.00 0.00 0.00 47 995.2
20260902231503 93 159 1.7 2.6 0.00 0.00 0.00 48 995.1
20260902231003 93 159 2.6 6.1 0.00 0.00 0.00 49 995.3
20260902230504 93 182 2.6 5.2 0.00 0.00 0.00 50 995.2
20260902230004 94 169 2.6 10.4 0.00 0.00 0.00 49 995.2
20260902225503 93 124 4.3 10.4 0.00 0.00 0.00 51 995.1
20260902225003 98 105 1.7 7.8 0.00 0.00 0.00 45 995.2
20260902224503 101 79 1.7 2.6 0.00 0.00 0.00 40 995.2
20260902224003 104 137 0.9 0.9 0.00 0.00 0.00 37 995.1
20260902223003 103 65 0.9 2.6 0.00 0.00 0.00 38 995.2
20260902222504 103 331 1.7 2.6 0.00 0.00 0.00 38 995.2
20260902221503 103 153 0.9 4.3 0.00 0.00 0.00 38 995.2
20260902221003 103 113 0.9 1.7 0.00 0.00 0.00 38 995.3
20260902220003 102 266 1.7 2.6 0.00 0.00 0.00 38 995.3
20260902215503 102 74 0.9 5.2 0.00 0.00 0.00 39 995.4
20260902214504 102 87 0.9 2.6 0.00 0.00 0.00 40 995.5
20260902212504 100 92 0.9 4.3 0.00 0.00 0.00 42 995.5
20260902211504 100 63 0.9 5.2 0.00 0.00 0.00 42 995.5
20260902210503 102 38 2.6 6.1 0.00 0.00 0.00 38 995.5
20260902210003 101 78 1.7 2.6 0.00 0.00 0.00 40 995.7
20260902205003 100 62 3.5 7.0 0.00 0.00 0.00 42 995.7
20260902204503 101 85 2.6 6.1 0.00 0.00 0.00 41 995.9
20260902204004 101 47 3.5 7.0 0.00 0.00 0.00 41 996.1
20260902203504 100 179 5.2 10.4 0.00 0.00 0.00 43 996.0
20260902203004 101 80 1.7 6.1 0.00 0.00 0.00 42 996.0
20260902202503 101 64 1.7 4.3 0.00 0.00 0.00 42 996.2
20260902202003 100 86 1.7 2.6 0.00 0.00 0.00 43 996.3
20260902201503 100 121 0.9 4.3 0.00 0.00 0.00 43 996.3
20260902201003 101 45 2.6 4.3 0.00 0.00 0.00 43 996.4
20260902200503 99 118 0.9 2.6 0.00 0.00 0.00 43 996.5
20260902200003 100 90 2.6 5.2 0.00 0.00 0.00 43 996.6
20260902195503 101 82 1.7 6.1 0.00 0.00 0.00 42 996.5
20260902194504 103 141 0.9 2.6 0.00 0.00 0.00 38 996.8
20260902194004 103 109 0.0 2.6 0.00 0.00 0.00 39 996.8
20260902192004 102 159 0.9 1.7 0.00 0.00 0.00 41 997.3
20260902191503 102 145 0.9 1.7 0.00 0.00 0.00 41 997.2
20260902191003 102 106 0.9 1.7 0.00 0.00 0.00 41 997.3
20260902190503 101 147 1.7 2.6 0.00 0.00 0.00 40 997.3
20260902190003 100 161 0.9 6.1 0.00 0.00 0.00 41 997.5
20260902185004 100 72 1.7 2.6 0.00 0.00 0.00 43 997.6
20260902184504 100 246 2.6 4.3 0.00 0.00 0.00 41 997.5
20260902184004 100 31 0.9 2.6 0.00 0.00 0.00 41 997.8
20260902183504 100 236 1.7 2.6 0.00 0.00 0.00 41 998.0
20260902183004 100 246 1.7 4.3 0.00 0.00 0.00 42 998.0
20260902182504 101 89 0.9 1.7 0.00 0.00 0.00 42 998.0
20260902182004 100 188 2.6 6.1 0.00 0.00 0.00 43 998.0
20260902181503 98 79 1.7 2.6 0.00 0.00 0.00 43 998.0
20260902181003 98 81 0.9 5.2 0.00 0.00 0.00 44 998.3
20260902180503 98 116 0.9 1.7 0.00 0.00 0.00 43 998.4
20260902180006 100 105 0.9 1.7 0.00 0.00 0.00 43 998.6
20260902175503 99 110 0.9 2.6 0.00 0.00 0.00 43 998.6
20260902175003 98 165 1.7 2.6 0.00 0.00 0.00 44 998.8
20260902173503 97 70 1.7 4.3 0.00 0.00 0.00 46 998.9
20260902173003 99 113 0.9 2.6 0.00 0.00 0.00 46 999.0
20260902172504 99 297 1.7 2.6 0.00 0.00 0.00 44 999.0
20260902172004 98 129 0.9 1.7 0.00 0.00 0.00 46 999.3
20260902171503 98 97 1.7 1.7 0.00 0.00 0.00 46 999.1
20260902171003 98 151 0.9 5.2 0.00 0.00 0.00 46 999.2
20260902170503 97 303 0.9 2.6 0.00 0.00 0.00 46 999.3
20260902170003 97 95 0.0 4.3 0.00 0.00 0.00 48 999.3
20260902165503 96 142 0.9 2.6 0.00 0.00 0.00 49 999.6
20260902165003 97 35 2.6 4.3 0.00 0.00 0.00 47 999.5
20260902164503 97 122 0.9 1.7 0.00 0.00 0.00 47 999.5
20260902164004 95 80 0.9 8.7 0.00 0.00 0.00 48 999.7
20260902163504 96 256 4.3 8.7 0.00 0.00 0.00 48 999.6
20260902163004 95 117 0.9 2.6 0.00 0.00 0.00 48 999.6
20260902162504 95 352 2.6 4.3 0.00 0.00 0.00 48 999.8
20260902162004 95 78 0.9 1.7 0.00 0.00 0.00 50 999.7
20260902161003 94 304 1.7 5.2 0.00 0.00 0.00 50 999.7
20260902160503 95 293 2.6 5.2 0.00 0.00 0.00 49 999.6
20260902155004 94 209 1.7 5.2 0.00 0.00 0.00 51 999.7
20260902154504 93 74 1.7 2.6 0.00 0.00 0.00 51 999.7
20260902154004 93 44 1.7 2.6 0.00 0.00 0.00 51 999.8
20260902153504 92 65 0.9 1.7 0.00 0.00 0.00 54 999.8
20260902153004 91 92 0.0 1.7 0.00 0.00 0.00 57 1000.0
20260902152503 93 80 0.9 1.7 0.00 0.00 0.00 56 999.8
20260902152004 92 103 1.7 2.6 0.00 0.00 0.00 54 999.8
20260902151503 92 0 1.7 1.7 0.00 0.00 0.00 56 999.8
20260902151003 91 104 1.7 2.6 0.00 0.00 0.00 57 999.8
20260902144503 88 109 0.9 4.3 0.00 0.00 0.00 64 999.9
20260902144003 87 243 1.7 4.3 0.00 0.00 0.00 65 999.7
20260902143504 86 105 0.0 1.7 0.00 0.00 0.00 66 999.9
20260902143003 86 218 1.7 2.6 0.00 0.00 0.00 66 999.7
20260902142503 86 82 1.7 2.6 0.00 0.00 0.00 67 999.7
20260902142003 85 139 1.7 2.6 0.00 0.00 0.00 69 999.6
20260902141504 84 22 1.7 5.2 0.00 0.00 0.00 69 999.6
20260902141003 84 206 2.6 6.1 0.00 0.00 0.00 69 999.8
20260902140504 84 23 1.7 2.6 0.00 0.00 0.00 69 999.5
20260902140004 83 38 1.7 2.6 0.00 0.00 0.00 71 999.6
20260902135003 82 283 1.7 5.2 0.00 0.00 0.00 72 999.6
20260902134503 82 237 1.7 4.3 0.00 0.00 0.00 73 999.5
20260902133504 81 181 0.9 1.7 0.00 0.00 0.00 75 999.6
20260902132503 80 219 0.9 1.7 0.00 0.00 0.00 76 999.3
20260902132003 80 139 0.9 1.7 0.00 0.00 0.00 77 999.3
20260902131503 80 143 0.9 1.7 0.00 0.00 0.00 77 999.3
20260902131003 79 146 0.9 0.9 0.00 0.00 0.00 79 999.3
20260902130503 78 175 0.9 0.9 0.00 0.00 0.00 80 999.1
20260902125504 77 128 0.0 0.9 0.00 0.00 0.00 82 999.2
20260902124504 76 124 0.0 0.0 0.00 0.00 0.00 84 999.1
20260902124003 76 124 0.0 0.0 0.00 0.00 0.00 84 999.0
20260902123503 76 125 0.0 0.0 0.00 0.00 0.00 84 999.0
20260902123003 76 125 0.0 0.0 0.00 0.00 0.00 84 999.1
20260902122503 76 125 0.0 0.9 0.00 0.00 0.00 83 998.7
20260902122004 76 107 0.0 0.9 0.00 0.00 0.00 83 998.7
20260902121504 77 116 0.0 0.9 0.00 0.00 0.00 82 998.9
20260902121003 77 263 0.0 0.9 0.00 0.00 0.00 81 998.8
20260902120503 77 80 0.9 4.3 0.00 0.00 0.00 80 998.6
20260902120003 78 86 0.0 0.9 0.00 0.00 0.00 79 998.6
20260902115504 78 94 0.9 1.7 0.00 0.00 0.00 79 998.6
20260902115004 78 95 0.0 0.9 0.00 0.00 0.00 79 998.6
20260902114004 78 174 0.9 0.9 0.00 0.00 0.00 79 998.6
20260902113503 78 121 0.0 0.9 0.00 0.00 0.00 79 998.5
20260902113003 78 138 0.9 1.7 0.00 0.00 0.00 79 998.4
20260902112503 78 173 0.9 2.6 0.00 0.00 0.00 79 998.6
20260902112003 77 177 0.9 2.6 0.00 0.00 0.00 80 998.7
20260902111503 77 147 0.9 1.7 0.00 0.00 0.00 81 998.6
20260902111004 77 132 0.0 0.9 0.00 0.00 0.00 82 998.8
20260902105504 76 146 0.0 0.0 0.00 0.00 0.00 84 998.7
20260902105004 76 146 0.0 0.0 0.00 0.00 0.00 84 998.7
20260902104503 77 146 0.0 0.0 0.00 0.00 0.00 84 998.6
20260902104003 77 146 0.0 0.0 0.00 0.00 0.00 84 998.5
20260902103503 77 146 0.0 0.0 0.00 0.00 0.00 84 998.5
20260902103003 77 146 0.0 0.0 0.00 0.00 0.00 84 998.4
20260902101503 77 145 0.0 0.0 0.00 0.00 0.00 84 998.7
20260902101003 77 145 0.0 0.0 0.00 0.00 0.00 84 998.6
20260902100504 77 145 0.0 0.0 0.00 0.00 0.00 84 998.5
20260902100004 77 145 0.0 0.0 0.00 0.00 0.00 83 998.7
20260902095504 77 145 0.0 0.0 0.00 0.00 0.00 83 998.6
20260902094503 77 145 0.0 0.0 0.00 0.00 0.00 83 998.8
20260902094003 77 145 0.0 0.0 0.00 0.00 0.00 82 998.7
20260902093503 77 145 0.0 0.0 0.00 0.00 0.00 82 998.7
20260902093003 78 145 0.0 0.0 0.00 0.00 0.00 81 998.8
20260902092504 78 145 0.9 0.9 0.00 0.00 0.00 81 998.5
20260902092004 78 145 0.9 0.9 0.00 0.00 0.00 81 998.7
20260902091504 78 144 0.9 0.9 0.00 0.00 0.00 81 998.6
20260902091004 78 144 0.9 0.9 0.00 0.00 0.00 82 998.9